Simultaneous Nadir Overpasses (SNOs) Predictions

Prediction of SNOs between METOP-A and NOAA-19 Satellite Orbit:

Table of predicted SNOs for the next 14.0 days since TLE Epoch: 3/18/2017
Index Date (METOP-A) Time (METOP-A) Lat,Lon (METOP-A) SZA (METOP-A ) Date (NOAA-19) Time (NOAA-19) Lat,Lon (NOAA-19) SZA (NOAA-19 ) Distance(km) Time Diff (sec)
1 03/25/2017 12:55:52 77.03, -10.34 74.95 03/25/2017 12:54:38 77.04, -10.33 74.96 1.67 74
2 03/25/2017 13:46:34 -77.02, 156.96 105.08 03/25/2017 13:45:33 -77.03, 157.00 105.07 1.49 61
3 03/25/2017 14:37:14 77.01, -35.75 74.90 03/25/2017 14:36:39 77.01, -35.70 74.91 1.36 35
4 03/25/2017 15:27:56 -77.00, 131.54 105.12 03/25/2017 15:27:34 -77.00, 131.62 105.12 1.87 22
5 03/25/2017 16:18:36 76.99, -61.17 74.85 03/25/2017 16:18:40 76.98, -61.08 74.85 2.30 4
6
